| time (UTC) | temp F | wind direction | speed MPH | gust MPH | rain 1hr in | rain 24hr in | rain mn in | humidity % | barometer mb |
| 20260903093726 | 70 | 192 | 2.0 | 5.0 | 0.00 | 0.21 | 0.12 | 93 | 1014.1 |
| 20260903093226 | 70 | 169 | 1.0 | 5.0 | 0.00 | 0.21 | 0.12 | 93 | 1014.2 |
| 20260903092726 | 70 | 255 | 1.0 | 5.0 | 0.00 | 0.21 | 0.12 | 93 | 1014.5 |
| 20260903092226 | 70 | 246 | 1.0 | 5.0 | 0.00 | 0.21 | 0.12 | 93 | 1014.5 |
| 20260903091726 | 70 | 217 | 3.0 | 9.0 | 0.00 | 0.21 | 0.12 | 93 | 1014.3 |
| 20260903091226 | 71 | 187 | 2.0 | 9.0 | 0.00 | 0.21 | 0.12 | 93 | 1014.3 |
| 20260903090726 | 71 | 229 | 3.0 | 7.0 | 0.00 | 0.21 | 0.12 | 93 | 1014.2 |
| 20260903085726 | 70 | 177 | 3.0 | 7.0 | 0.00 | 0.21 | 0.12 | 93 | 1014.1 |
| 20260903085226 | 70 | 246 | 2.0 | 12.0 | 0.00 | 0.21 | 0.12 | 93 | 1014.0 |
| 20260903084725 | 70 | 137 | 5.0 | 12.0 | 0.00 | 0.21 | 0.12 | 93 | 1013.8 |
| 20260903084225 | 70 | 165 | 5.0 | 12.0 | 0.01 | 0.21 | 0.12 | 93 | 1013.7 |
| 20260903083726 | 70 | 126 | 6.0 | 12.0 | 0.01 | 0.21 | 0.12 | 93 | 1013.8 |
| 20260903083226 | 70 | 189 | 5.0 | 9.0 | 0.01 | 0.21 | 0.12 | 93 | 1014.4 |
| 20260903082726 | 70 | 181 | 5.0 | 9.0 | 0.01 | 0.21 | 0.12 | 93 | 1015.0 |
| 20260903082226 | 70 | 178 | 3.0 | 10.0 | 0.02 | 0.21 | 0.12 | 92 | 1015.1 |
| 20260903081727 | 70 | 165 | 2.0 | 10.0 | 0.02 | 0.21 | 0.12 | 92 | 1015.2 |
| 20260903081226 | 70 | 161 | 3.0 | 8.0 | 0.02 | 0.21 | 0.12 | 92 | 1015.3 |
| 20260903080726 | 70 | 223 | 1.0 | 3.0 | 0.03 | 0.21 | 0.12 | 92 | 1015.3 |
| 20260903080226 | 70 | 255 | 1.0 | 3.0 | 0.03 | 0.21 | 0.12 | 92 | 1015.3 |
| 20260903075726 | 70 | 265 | 1.0 | 3.0 | 0.04 | 0.21 | 0.12 | 92 | 1015.0 |
| 20260903075226 | 70 | 216 | 1.0 | 3.0 | 0.04 | 0.21 | 0.12 | 92 | 1014.8 |
| 20260903074726 | 70 | 133 | 1.0 | 3.0 | 0.05 | 0.21 | 0.12 | 92 | 1014.7 |
| 20260903073726 | 70 | 229 | 1.0 | 7.0 | 0.05 | 0.20 | 0.11 | 92 | 1014.8 |
| 20260903073226 | 70 | 145 | 3.0 | 7.0 | 0.05 | 0.20 | 0.11 | 92 | 1014.6 |
| 20260903070726 | 69 | 144 | 1.0 | 6.0 | 0.04 | 0.18 | 0.09 | 92 | 1015.3 |
| 20260903070226 | 69 | 167 | 3.0 | 6.0 | 0.04 | 0.18 | 0.09 | 92 | 1015.5 |
| 20260903065226 | 69 | 214 | 1.0 | 3.0 | 0.04 | 0.17 | 0.08 | 91 | 1015.7 |
| 20260903064726 | 69 | 235 | 0.0 | 2.0 | 0.03 | 0.16 | 0.07 | 91 | 1015.8 |
| 20260903063726 | 69 | 235 | 0.0 | 1.0 | 0.03 | 0.15 | 0.06 | 91 | 1015.8 |
| 20260903063226 | 69 | 236 | 0.0 | 1.0 | 0.04 | 0.15 | 0.06 | 91 | 1015.6 |
| 20260903062726 | 69 | 235 | 0.0 | 2.0 | 0.03 | 0.14 | 0.05 | 91 | 1015.6 |
| 20260903062226 | 69 | 235 | 0.0 | 2.0 | 0.04 | 0.14 | 0.05 | 91 | 1015.6 |
| 20260903061726 | 69 | 236 | 0.0 | 2.0 | 0.04 | 0.14 | 0.05 | 91 | 1015.6 |
| 20260903061226 | 69 | 235 | 0.0 | 1.0 | 0.04 | 0.14 | 0.05 | 91 | 1015.6 |
| 20260903055726 | 69 | 235 | 1.0 | 3.0 | 0.04 | 0.14 | 0.05 | 91 | 1016.0 |
| 20260903055225 | 69 | 164 | 2.0 | 6.0 | 0.03 | 0.13 | 0.04 | 91 | 1015.8 |
| 20260903054725 | 69 | 150 | 2.0 | 6.0 | 0.04 | 0.13 | 0.04 | 91 | 1016.0 |
| 20260903054226 | 69 | 134 | 2.0 | 3.0 | 0.03 | 0.12 | 0.03 | 90 | 1015.9 |
| 20260903053225 | 69 | 82 | 0.0 | 2.0 | 0.02 | 0.11 | 0.02 | 90 | 1016.3 |
| 20260903052726 | 69 | 42 | 1.0 | 2.0 | 0.02 | 0.11 | 0.02 | 90 | 1016.4 |
| 20260903052225 | 69 | 41 | 1.0 | 2.0 | 0.01 | 0.10 | 0.01 | 90 | 1016.5 |
| 20260903051725 | 69 | 346 | 0.0 | 3.0 | 0.01 | 0.10 | 0.01 | 89 | 1017.0 |
| 20260903051226 | 69 | 346 | 0.0 | 6.0 | 0.01 | 0.10 | 0.01 | 89 | 1017.5 |
| 20260903050725 | 69 | 303 | 2.0 | 6.0 | 0.01 | 0.10 | 0.01 | 89 | 1017.8 |
| 20260903050226 | 70 | 349 | 3.0 | 5.0 | 0.01 | 0.10 | 0.01 | 89 | 1018.1 |
| 20260903045726 | 70 | 295 | 1.0 | 7.0 | 0.01 | 0.10 | 0.01 | 89 | 1017.9 |
| 20260903044727 | 70 | 273 | 1.0 | 3.0 | 0.00 | 0.09 | 0.00 | 88 | 1018.0 |
| 20260903044226 | 70 | 264 | 1.0 | 3.0 | 0.00 | 0.09 | 0.00 | 88 | 1017.5 |
| 20260903043725 | 70 | 302 | 1.0 | 3.0 | 0.00 | 0.09 | 0.00 | 88 | 1017.5 |
| 20260903043225 | 70 | 350 | 1.0 | 3.0 | 0.00 | 0.09 | 0.00 | 88 | 1017.5 |
| 20260903041728 | 71 | 252 | 2.0 | 7.0 | 0.00 | 0.09 | 0.00 | 87 | 1017.9 |
| 20260903040728 | 71 | 167 | 1.0 | 3.0 | 0.00 | 0.09 | 0.00 | 87 | 1017.7 |
| 20260903040228 | 71 | 167 | 1.0 | 2.0 | 0.00 | 0.09 | 0.00 | 87 | 1017.3 |
| 20260903035727 | 71 | 171 | 0.0 | 1.0 | 0.00 | 0.09 | 0.09 | 87 | 1017.4 |
| 20260903035228 | 71 | 171 | 0.0 | 0.0 | 0.00 | 0.09 | 0.09 | 87 | 1017.6 |
| 20260903034728 | 71 | 171 | 0.0 | 0.0 | 0.00 | 0.09 | 0.09 | 87 | 1017.4 |
| 20260903034228 | 71 | 171 | 0.0 | 1.0 | 0.00 | 0.09 | 0.09 | 87 | 1017.6 |
| 20260903033728 | 71 | 171 | 0.0 | 1.0 | 0.00 | 0.09 | 0.09 | 87 | 1017.6 |
| 20260903033227 | 71 | 171 | 0.0 | 2.0 | 0.00 | 0.09 | 0.09 | 87 | 1017.5 |
| 20260903032728 | 71 | 171 | 1.0 | 2.0 | 0.00 | 0.09 | 0.09 | 86 | 1017.3 |
| 20260903031228 | 71 | 171 | 0.0 | 3.0 | 0.00 | 0.09 | 0.09 | 86 | 1017.1 |
| 20260903030728 | 71 | 95 | 0.0 | 1.0 | 0.00 | 0.09 | 0.09 | 86 | 1017.3 |
| 20260903030229 | 71 | 95 | 0.0 | 3.0 | 0.00 | 0.09 | 0.09 | 86 | 1017.3 |
| 20260903025728 | 71 | 95 | 0.0 | 9.0 | 0.00 | 0.09 | 0.09 | 86 | 1017.4 |
| 20260903025227 | 71 | 104 | 2.0 | 9.0 | 0.00 | 0.09 | 0.09 | 86 | 1017.4 |
| 20260903023834 | 70 | 95 | 1.0 | 3.0 | 0.00 | 0.09 | 0.09 | 86 | 1017.5 |
| 20260903023227 | 70 | 75 | 2.0 | 3.0 | 0.00 | 0.09 | 0.09 | 86 | 1017.6 |
| 20260903022228 | 70 | 50 | 1.0 | 5.0 | 0.00 | 0.09 | 0.09 | 86 | 1018.1 |
| 20260903021228 | 70 | 74 | 1.0 | 5.0 | 0.00 | 0.09 | 0.09 | 86 | 1017.9 |
| 20260903020728 | 70 | 85 | 2.0 | 6.0 | 0.00 | 0.09 | 0.09 | 86 | 1017.8 |
| 20260903020227 | 70 | 92 | 1.0 | 6.0 | 0.00 | 0.09 | 0.09 | 85 | 1017.6 |
| 20260903015728 | 70 | 19 | 2.0 | 6.0 | 0.00 | 0.09 | 0.09 | 85 | 1017.7 |
| 20260903015227 | 70 | 180 | 2.0 | 6.0 | 0.00 | 0.09 | 0.09 | 85 | 1017.7 |
| 20260903014728 | 70 | 234 | 1.0 | 6.0 | 0.00 | 0.09 | 0.09 | 85 | 1017.7 |
| 20260903014228 | 70 | 75 | 2.0 | 5.0 | 0.00 | 0.09 | 0.09 | 85 | 1018.0 |
| 20260903013728 | 70 | 68 | 1.0 | 3.0 | 0.00 | 0.09 | 0.09 | 85 | 1018.2 |
| 20260903013227 | 70 | 86 | 1.0 | 3.0 | 0.00 | 0.09 | 0.09 | 85 | 1018.1 |
| 20260903012729 | 70 | 60 | 1.0 | 5.0 | 0.00 | 0.09 | 0.09 | 84 | 1018.2 |
| 20260903012228 | 70 | 77 | 2.0 | 5.0 | 0.00 | 0.09 | 0.09 | 84 | 1018.2 |
| 20260903011727 | 70 | 140 | 2.0 | 7.0 | 0.00 | 0.09 | 0.09 | 84 | 1018.3 |
| 20260903011227 | 70 | 72 | 3.0 | 7.0 | 0.00 | 0.09 | 0.09 | 84 | 1018.4 |
| 20260903010228 | 70 | 85 | 3.0 | 7.0 | 0.00 | 0.09 | 0.09 | 84 | 1018.4 |
| 20260903005727 | 70 | 47 | 3.0 | 7.0 | 0.00 | 0.09 | 0.09 | 84 | 1018.3 |
| 20260903004728 | 70 | 65 | 2.0 | 3.0 | 0.00 | 0.09 | 0.09 | 84 | 1018.6 |
| 20260903004227 | 70 | 78 | 1.0 | 3.0 | 0.00 | 0.09 | 0.09 | 84 | 1018.8 |
| 20260903003728 | 70 | 96 | 1.0 | 3.0 | 0.00 | 0.09 | 0.09 | 84 | 1018.8 |
| 20260903003229 | 70 | 32 | 1.0 | 5.0 | 0.00 | 0.09 | 0.09 | 84 | 1018.7 |
| 20260903002728 | 70 | 99 | 1.0 | 5.0 | 0.00 | 0.09 | 0.09 | 83 | 1018.6 |
| 20260903002229 | 70 | 60 | 1.0 | 6.0 | 0.00 | 0.09 | 0.09 | 84 | 1018.4 |
| 20260903001728 | 70 | 118 | 2.0 | 6.0 | 0.00 | 0.09 | 0.09 | 84 | 1018.3 |
| 20260903001227 | 70 | 77 | 1.0 | 3.0 | 0.00 | 0.09 | 0.09 | 84 | 1018.2 |
| 20260903000228 | 70 | 67 | 2.0 | 7.0 | 0.00 | 0.09 | 0.09 | 83 | 1018.1 |
| 20260902235728 | 70 | 130 | 1.0 | 6.0 | 0.00 | 0.09 | 0.09 | 83 | 1018.0 |
| 20260902235227 | 70 | 63 | 1.0 | 3.0 | 0.00 | 0.09 | 0.09 | 84 | 1018.0 |
| 20260902234728 | 70 | 76 | 2.0 | 3.0 | 0.00 | 0.09 | 0.09 | 83 | 1018.1 |
| 20260902234227 | 70 | 67 | 1.0 | 5.0 | 0.00 | 0.09 | 0.09 | 83 | 1018.0 |
| 20260902233727 | 70 | 99 | 1.0 | 8.0 | 0.00 | 0.09 | 0.09 | 83 | 1017.9 |
| 20260902233228 | 70 | 99 | 2.0 | 8.0 | 0.00 | 0.10 | 0.09 | 83 | 1017.9 |
| 20260902232727 | 70 | 57 | 2.0 | 8.0 | 0.00 | 0.10 | 0.09 | 83 | 1017.9 |
| 20260902232227 | 70 | 227 | 3.0 | 8.0 | 0.00 | 0.10 | 0.09 | 83 | 1017.9 |
| 20260902231728 | 70 | 76 | 1.0 | 6.0 | 0.00 | 0.10 | 0.09 | 83 | 1017.8 |
| 20260902231228 | 70 | 84 | 2.0 | 10.0 | 0.00 | 0.10 | 0.09 | 83 | 1017.9 |
| 20260902230728 | 70 | 62 | 4.0 | 10.0 | 0.00 | 0.10 | 0.09 | 83 | 1017.9 |
| 20260902230227 | 70 | 111 | 3.0 | 8.0 | 0.00 | 0.11 | 0.09 | 83 | 1017.9 |
| 20260902225728 | 71 | 58 | 2.0 | 8.0 | 0.00 | 0.11 | 0.09 | 83 | 1017.9 |
| 20260902225228 | 70 | 103 | 2.0 | 9.0 | 0.00 | 0.12 | 0.09 | 82 | 1018.0 |
| 20260902224228 | 71 | 43 | 3.0 | 9.0 | 0.00 | 0.14 | 0.09 | 82 | 1018.4 |
| 20260902223727 | 71 | 126 | 1.0 | 7.0 | 0.00 | 0.15 | 0.09 | 83 | 1018.4 |
| 20260902223227 | 71 | 103 | 3.0 | 7.0 | 0.00 | 0.15 | 0.09 | 82 | 1018.4 |
| 20260902222227 | 71 | 82 | 4.0 | 9.0 | 0.00 | 0.15 | 0.09 | 82 | 1018.5 |
| 20260902221727 | 71 | 78 | 3.0 | 9.0 | 0.00 | 0.15 | 0.09 | 82 | 1018.4 |
| 20260902221227 | 71 | 61 | 3.0 | 9.0 | 0.00 | 0.18 | 0.09 | 82 | 1018.5 |
| 20260902220727 | 71 | 70 | 3.0 | 6.0 | 0.00 | 0.20 | 0.09 | 82 | 1018.7 |
| 20260902220228 | 71 | 163 | 2.0 | 5.0 | 0.00 | 0.20 | 0.09 | 83 | 1018.9 |
| 20260902215728 | 71 | 71 | 1.0 | 6.0 | 0.00 | 0.20 | 0.09 | 83 | 1019.0 |
| 20260902215227 | 70 | 92 | 2.0 | 6.0 | 0.00 | 0.20 | 0.09 | 83 | 1018.9 |
| 20260902214727 | 70 | 100 | 2.0 | 6.0 | 0.00 | 0.20 | 0.09 | 83 | 1019.0 |
| 20260902214227 | 70 | 53 | 2.0 | 5.0 | 0.00 | 0.20 | 0.09 | 84 | 1019.0 |
| 20260902213727 | 70 | 160 | 1.0 | 5.0 | 0.00 | 0.20 | 0.09 | 85 | 1019.1 |
| 20260902213227 | 70 | 62 | 2.0 | 5.0 | 0.00 | 0.20 | 0.09 | 85 | 1019.0 |
| 20260902212227 | 70 | 97 | 1.0 | 7.0 | 0.00 | 0.20 | 0.09 | 85 | 1018.9 |
| 20260902211728 | 70 | 132 | 2.0 | 7.0 | 0.00 | 0.20 | 0.09 | 85 | 1018.7 |
| 20260902211227 | 70 | 82 | 2.0 | 5.0 | 0.00 | 0.20 | 0.09 | 86 | 1018.8 |
| 20260902210227 | 70 | 38 | 2.0 | 7.0 | 0.00 | 0.20 | 0.09 | 86 | 1018.7 |
| 20260902205727 | 70 | 61 | 3.0 | 7.0 | 0.00 | 0.20 | 0.09 | 86 | 1018.6 |
| 20260902205227 | 70 | 55 | 2.0 | 7.0 | 0.00 | 0.20 | 0.09 | 86 | 1018.6 |
| 20260902204227 | 70 | 103 | 3.0 | 6.0 | 0.00 | 0.20 | 0.09 | 86 | 1018.6 |
| 20260902203728 | 70 | 51 | 1.0 | 6.0 | 0.00 | 0.20 | 0.09 | 86 | 1018.6 |
| 20260902203228 | 70 | 48 | 0.0 | 6.0 | 0.00 | 0.20 | 0.09 | 86 | 1018.6 |
| 20260902202727 | 70 | 75 | 2.0 | 6.0 | 0.00 | 0.20 | 0.09 | 86 | 1018.6 |
| 20260902202227 | 70 | 78 | 0.0 | 3.0 | 0.00 | 0.20 | 0.09 | 87 | 1018.6 |
| 20260902201727 | 70 | 65 | 2.0 | 3.0 | 0.01 | 0.20 | 0.09 | 87 | 1018.6 |
| 20260902201205 | 70 | 4 | 1.0 | 3.0 | 0.01 | 0.20 | 0.09 | 87 | 1018.8 |
| 20260902200227 | 70 | 0 | 1.0 | 6.0 | 0.06 | 0.20 | 0.09 | 86 | 1018.9 |
| 20260902195728 | 70 | 324 | 1.0 | 6.0 | 0.07 | 0.20 | 0.09 | 85 | 1018.9 |
| 20260902195227 | 70 | 326 | 2.0 | 5.0 | 0.08 | 0.20 | 0.09 | 85 | 1019.0 |
| 20260902194727 | 70 | 19 | 3.0 | 5.0 | 0.09 | 0.20 | 0.09 | 84 | 1019.0 |
| 20260902194227 | 70 | 28 | 2.0 | 8.0 | 0.09 | 0.20 | 0.09 | 84 | 1019.1 |
| 20260902193727 | 70 | 26 | 3.0 | 8.0 | 0.09 | 0.20 | 0.09 | 83 | 1019.1 |
| 20260902193228 | 70 | 22 | 3.0 | 8.0 | 0.09 | 0.20 | 0.09 | 82 | 1019.3 |
| 20260902192227 | 71 | 319 | 3.0 | 7.0 | 0.09 | 0.20 | 0.09 | 81 | 1019.4 |
| 20260902191727 | 72 | 0 | 3.0 | 7.0 | 0.08 | 0.19 | 0.08 | 80 | 1019.4 |
| 20260902190727 | 73 | 67 | 2.0 | 3.0 | 0.06 | 0.17 | 0.06 | 77 | 1019.4 |
| 20260902190226 | 73 | 106 | 0.0 | 2.0 | 0.03 | 0.14 | 0.03 | 76 | 1019.3 |
| 20260902185727 | 73 | 107 | 1.0 | 2.0 | 0.02 | 0.13 | 0.02 | 76 | 1019.1 |
| 20260902185227 | 73 | 132 | 1.0 | 3.0 | 0.01 | 0.12 | 0.01 | 75 | 1019.0 |
| 20260902183227 | 74 | 128 | 3.0 | 10.0 | 0.00 | 0.11 | 0.00 | 73 | 1018.9 |
| 20260902182727 | 74 | 151 | 1.0 | 6.0 | 0.00 | 0.11 | 0.00 | 72 | 1019.0 |
| 20260902182226 | 74 | 153 | 2.0 | 6.0 | 0.00 | 0.11 | 0.00 | 72 | 1019.0 |
| 20260902181727 | 74 | 184 | 3.0 | 6.0 | 0.00 | 0.11 | 0.00 | 72 | 1019.0 |
| 20260902181227 | 74 | 160 | 1.0 | 6.0 | 0.00 | 0.11 | 0.00 | 72 | 1019.1 |
| 20260902180227 | 74 | 93 | 3.0 | 8.0 | 0.00 | 0.11 | 0.00 | 72 | 1019.0 |
| 20260902175727 | 74 | 147 | 4.0 | 8.0 | 0.00 | 0.11 | 0.00 | 71 | 1019.1 |
| 20260902175227 | 74 | 164 | 1.0 | 6.0 | 0.00 | 0.11 | 0.00 | 72 | 1019.1 |
| 20260902174226 | 74 | 154 | 2.0 | 5.0 | 0.00 | 0.11 | 0.00 | 71 | 1019.2 |
| 20260902173727 | 74 | 163 | 1.0 | 5.0 | 0.00 | 0.11 | 0.00 | 71 | 1019.4 |
| 20260902173227 | 74 | 178 | 2.0 | 5.0 | 0.00 | 0.11 | 0.00 | 71 | 1019.3 |
| 20260902172727 | 74 | 80 | 2.0 | 7.0 | 0.00 | 0.11 | 0.00 | 71 | 1019.3 |
| 20260902172226 | 73 | 101 | 2.0 | 7.0 | 0.00 | 0.11 | 0.00 | 71 | 1019.3 |
| 20260902171727 | 73 | 146 | 2.0 | 5.0 | 0.00 | 0.11 | 0.00 | 71 | 1019.2 |
| 20260902171227 | 73 | 154 | 1.0 | 6.0 | 0.00 | 0.11 | 0.00 | 72 | 1019.3 |
| 20260902170726 | 73 | 113 | 1.0 | 7.0 | 0.00 | 0.11 | 0.00 | 72 | 1019.4 |
| 20260902170227 | 73 | 150 | 3.0 | 7.0 | 0.00 | 0.11 | 0.00 | 72 | 1019.5 |
| 20260902165726 | 73 | 171 | 1.0 | 3.0 | 0.00 | 0.11 | 0.00 | 72 | 1019.7 |
| 20260902164727 | 72 | 81 | 1.0 | 3.0 | 0.00 | 0.11 | 0.00 | 72 | 1019.8 |
| 20260902163727 | 72 | 75 | 2.0 | 7.0 | 0.00 | 0.11 | 0.00 | 72 | 1019.8 |
| 20260902163227 | 73 | 157 | 1.0 | 7.0 | 0.00 | 0.11 | 0.00 | 72 | 1019.8 |
| 20260902162726 | 72 | 121 | 1.0 | 6.0 | 0.00 | 0.11 | 0.00 | 72 | 1019.8 |
| 20260902162226 | 72 | 76 | 3.0 | 6.0 | 0.00 | 0.11 | 0.00 | 72 | 1019.7 |
| 20260902161727 | 72 | 121 | 2.0 | 3.0 | 0.00 | 0.11 | 0.00 | 72 | 1019.6 |
| 20260902161227 | 72 | 58 | 1.0 | 5.0 | 0.00 | 0.11 | 0.00 | 73 | 1019.6 |
| 20260902160227 | 72 | 100 | 1.0 | 6.0 | 0.00 | 0.12 | 0.00 | 73 | 1019.6 |
| 20260902155727 | 72 | 74 | 3.0 | 6.0 | 0.00 | 0.12 | 0.00 | 73 | 1019.7 |
| 20260902155226 | 72 | 151 | 1.0 | 6.0 | 0.00 | 0.12 | 0.00 | 73 | 1019.8 |
| 20260902154727 | 71 | 98 | 1.0 | 6.0 | 0.00 | 0.13 | 0.00 | 73 | 1019.9 |
| 20260902154226 | 72 | 107 | 2.0 | 6.0 | 0.00 | 0.13 | 0.00 | 73 | 1020.1 |
| 20260902153226 | 72 | 53 | 1.0 | 3.0 | 0.00 | 0.14 | 0.00 | 73 | 1020.1 |
| 20260902152727 | 71 | 74 | 2.0 | 3.0 | 0.00 | 0.15 | 0.00 | 74 | 1019.9 |
| 20260902152227 | 71 | 59 | 2.0 | 5.0 | 0.00 | 0.15 | 0.00 | 73 | 1019.8 |
| 20260902151227 | 71 | 90 | 1.0 | 5.0 | 0.00 | 0.16 | 0.00 | 74 | 1019.8 |
| 20260902150727 | 71 | 66 | 1.0 | 5.0 | 0.00 | 0.17 | 0.00 | 75 | 1019.9 |
| 20260902150226 | 71 | 51 | 1.0 | 5.0 | 0.00 | 0.17 | 0.00 | 75 | 1019.8 |
| 20260902145727 | 70 | 51 | 2.0 | 5.0 | 0.00 | 0.17 | 0.00 | 75 | 1019.9 |
| 20260902145227 | 70 | 65 | 1.0 | 5.0 | 0.00 | 0.17 | 0.00 | 75 | 1019.9 |
| 20260902144227 | 70 | 101 | 3.0 | 5.0 | 0.00 | 0.17 | 0.00 | 76 | 1020.0 |
| 20260902143726 | 70 | 86 | 1.0 | 3.0 | 0.00 | 0.17 | 0.00 | 76 | 1020.1 |
| 20260902143226 | 70 | 85 | 1.0 | 5.0 | 0.00 | 0.17 | 0.00 | 76 | 1020.2 |
| 20260902142227 | 70 | 88 | 2.0 | 5.0 | 0.00 | 0.17 | 0.00 | 76 | 1020.1 |
| 20260902141727 | 70 | 119 | 1.0 | 8.0 | 0.00 | 0.17 | 0.00 | 76 | 1020.1 |
| 20260902141226 | 70 | 53 | 2.0 | 8.0 | 0.00 | 0.17 | 0.00 | 77 | 1020.1 |
| 20260902140727 | 70 | 164 | 2.0 | 3.0 | 0.00 | 0.17 | 0.00 | 77 | 1020.0 |
| 20260902140227 | 69 | 53 | 1.0 | 3.0 | 0.00 | 0.17 | 0.00 | 78 | 1020.0 |
| 20260902135228 | 69 | 113 | 2.0 | 7.0 | 0.00 | 0.17 | 0.00 | 79 | 1020.0 |
| 20260902134726 | 69 | 74 | 2.0 | 7.0 | 0.00 | 0.17 | 0.00 | 80 | 1019.9 |
| 20260902134226 | 68 | 69 | 2.0 | 7.0 | 0.00 | 0.17 | 0.00 | 80 | 1019.9 |
| 20260902133726 | 68 | 40 | 2.0 | 6.0 | 0.00 | 0.17 | 0.00 | 81 | 1019.9 |
| 20260902133228 | 68 | 49 | 3.0 | 10.0 | 0.00 | 0.17 | 0.00 | 82 | 1019.6 |
| 20260902132727 | 68 | 252 | 2.0 | 10.0 | 0.00 | 0.17 | 0.00 | 83 | 1019.4 |
| 20260902132227 | 68 | 73 | 1.0 | 6.0 | 0.00 | 0.17 | 0.00 | 84 | 1019.4 |
| 20260902131726 | 68 | 96 | 3.0 | 6.0 | 0.00 | 0.17 | 0.00 | 85 | 1019.6 |
| 20260902131226 | 68 | 73 | 1.0 | 6.0 | 0.00 | 0.17 | 0.00 | 86 | 1019.6 |
| 20260902130726 | 68 | 99 | 2.0 | 6.0 | 0.00 | 0.17 | 0.00 | 86 | 1019.7 |
| 20260902125228 | 68 | 64 | 2.0 | 7.0 | 0.00 | 0.17 | 0.00 | 86 | 1019.5 |
| 20260902124726 | 68 | 51 | 2.0 | 7.0 | 0.00 | 0.17 | 0.00 | 87 | 1019.4 |
| 20260902123726 | 68 | 93 | 3.0 | 8.0 | 0.00 | 0.17 | 0.00 | 87 | 1019.4 |
| 20260902123227 | 68 | 89 | 2.0 | 8.0 | 0.00 | 0.17 | 0.00 | 87 | 1019.4 |
| 20260902122726 | 68 | 84 | 3.0 | 8.0 | 0.00 | 0.17 | 0.00 | 87 | 1019.2 |
| 20260902121726 | 68 | 171 | 3.0 | 10.0 | 0.00 | 0.17 | 0.00 | 88 | 1019.2 |
| 20260902121204 | 67 | 57 | 4.0 | 10.0 | 0.00 | 0.17 | 0.00 | 88 | 1019.3 |
| 20260902120726 | 67 | 76 | 3.0 | 8.0 | 0.00 | 0.17 | 0.00 | 88 | 1019.2 |
| 20260902120227 | 67 | 152 | 3.0 | 8.0 | 0.00 | 0.17 | 0.00 | 89 | 1019.1 |
| 20260902115726 | 67 | 87 | 2.0 | 5.0 | 0.00 | 0.17 | 0.00 | 89 | 1019.1 |
| 20260902115227 | 67 | 60 | 2.0 | 8.0 | 0.00 | 0.18 | 0.00 | 89 | 1019.2 |
| 20260902114726 | 67 | 69 | 1.0 | 8.0 | 0.00 | 0.19 | 0.00 | 90 | 1019.2 |
| 20260902113727 | 67 | 74 | 2.0 | 7.0 | 0.00 | 0.20 | 0.00 | 90 | 1019.1 |
| 20260902112726 | 67 | 58 | 2.0 | 9.0 | 0.00 | 0.20 | 0.00 | 91 | 1019.1 |
| 20260902112226 | 67 | 82 | 2.0 | 9.0 | 0.00 | 0.20 | 0.00 | 91 | 1019.0 |
| 20260902111726 | 67 | 19 | 3.0 | 9.0 | 0.00 | 0.20 | 0.00 | 91 | 1019.0 |
| 20260902111226 | 67 | 325 | 3.0 | 9.0 | 0.00 | 0.20 | 0.00 | 91 | 1019.0 |
| 20260902110726 | 67 | 350 | 3.0 | 8.0 | 0.00 | 0.20 | 0.00 | 91 | 1019.0 |
| 20260902110226 | 67 | 0 | 2.0 | 8.0 | 0.00 | 0.20 | 0.00 | 91 | 1019.1 |
| 20260902105726 | 67 | 310 | 5.0 | 8.0 | 0.00 | 0.20 | 0.00 | 91 | 1019.0 |
| 20260902105227 | 67 | 355 | 4.0 | 8.0 | 0.00 | 0.20 | 0.00 | 91 | 1019.1 |
| 20260902104226 | 67 | 59 | 3.0 | 9.0 | 0.00 | 0.20 | 0.00 | 91 | 1019.0 |
| 20260902103726 | 67 | 329 | 3.0 | 9.0 | 0.00 | 0.20 | 0.00 | 91 | 1019.0 |
| 20260902102726 | 67 | 17 | 5.0 | 8.0 | 0.00 | 0.20 | 0.00 | 91 | 1018.8 |
| 20260902101726 | 67 | 32 | 3.0 | 9.0 | 0.00 | 0.20 | 0.00 | 91 | 1018.7 |
| 20260902101225 | 67 | 5 | 5.0 | 9.0 | 0.00 | 0.20 | 0.00 | 91 | 1018.7 |
| 20260902100726 | 67 | 339 | 4.0 | 8.0 | 0.00 | 0.20 | 0.00 | 91 | 1018.6 |
| 20260902095726 | 67 | 11 | 2.0 | 9.0 | 0.00 | 0.20 | 0.00 | 91 | 1018.6 |
| 20260902095227 | 67 | 344 | 3.0 | 8.0 | 0.00 | 0.20 | 0.00 | 91 | 1018.5 |
| 20260902094726 | 67 | 77 | 2.0 | 8.0 | 0.00 | 0.20 | 0.00 | 91 | 1018.3 |
| 20260902094226 | 67 | 348 | 3.0 | 7.0 | 0.00 | 0.20 | 0.00 | 91 | 1018.4 |